Lid_Strength_Index
2 2 2 3 3 3 4 3 3 3 3 3 3 3 3 3 4 5 5 5 5 5 5 5 4 3 4 6 5 -0 -1 -1 -0 1 2 4 5 6 7 7 6 7 6 5 5 5 5
2 2 2 3 3 3 3 3 3 4 4 3 3 3 3 4 3 5 5 5 6 6 5 5 4 3 6 6 0 -1 -0 0 1 1 3 3 4 4 6 6 7 6 6 6 5 6 5
2 2 2 2 3 3 2 3 4 4 4 4 3 3 4 3 4 4 6 6 6 6 5 4 4 3 8 6 -0 -1 -0 1 0 1 3 2 2 4 4 6 4 5 7 6 6 6 7
1 2 2 2 3 3 2 3 3 4 4 4 3 3 3 3 3 4 4 7 6 5 4 4 3 5 8 2 -1 0 0 1 0 0 2 1 1 4 5 4 5 7 7 10 7 6 6
2 2 2 2 2 3 3 3 3 3 4 3 3 3 3 3 3 4 5 5 6 5 4 3 5 7 8 -0 2 1 0 3 2 1 1 1 2 5 5 7 8 8 11 10 9 6 7
2 2 2 2 2 2 2 3 3 2 3 3 3 3 4 4 4 5 5 5 4 5 4 4 5 7 7 6 5 2 0 1 3 3 4 4 5 6 6 8 10 10 10 10 10 7 7
2 2 2 2 2 2 2 2 2 2 2 3 4 4 4 4 4 5 5 5 4 5 7 10 10 8 7 6 6 5 2 3 3 4 7 6 7 8 7 6 7 7 8 9 9 7 8
2 2 1 1 2 1 1 2 2 2 3 3 4 5 5 5 5 5 6 5 6 6 7 7 8 8 8 7 8 7 2 5 5 7 6 6 8 6 6 7 7 7 9 9 9 7 7
2 2 1 1 1 1 1 2 2 2 3 3 3 4 5 5 5 6 7 5 5 5 7 6 6 7 7 6 8 7 4 4 6 7 7 8 7 6 8 8 8 8 8 9 9 8 7
2 1 1 1 1 1 1 2 2 2 3 4 3 4 5 6 7 7 6 5 5 5 8 8 7 6 7 7 8 6 4 4 6 7 7 7 6 8 8 8 8 9 7 8 9 9 11
2 2 1 1 1 1 1 2 2 2 3 3 3 4 5 6 6 7 6 5 6 6 14 9 7 5 7 7 6 7 5 5 6 6 7 8 9 8 8 8 8 9 6 8 9 9 9
2 2 2 1 1 1 2 2 2 3 3 3 4 4 5 6 6 5 5 6 6 10 14 9 7 7 8 7 7 7 6 5 5 6 8 7 7 8 7 8 8 8 8 8 9 8 11
1 1 2 2 2 2 2 2 3 3 3 4 5 5 5 4 5 5 5 6 9 13 9 9 9 8 8 8 7 8 7 7 7 9 9 8 8 8 7 8 8 8 9 10 11 11 11
2 2 2 2 2 3 3 3 3 3 4 4 5 6 5 4 4 4 5 6 13 12 11 9 9 9 9 8 8 8 8 8 8 7 9 10 10 9 8 7 7 8 8 10 13 12 11
2 2 2 2 2 2 3 3 4 4 4 5 6 4 5 4 4 4 5 9 10 10 9 9 9 10 9 9 8 8 8 8 6 7 8 10 10 9 8 8 7 9 9 9 11 12 11
3 2 2 2 2 2 3 3 4 4 4 5 5 5 5 4 4 5 8 10 8 8 7 9 10 10 10 9 9 9 8 7 7 7 5 7 9 9 9 8 9 8 8 10 9 12 13
3 2 2 2 3 3 3 3 4 4 5 5 5 6 5 4 6 7 11 9 7 6 6 8 9 10 9 10 9 9 8 7 7 7 7 8 8 9 9 9 9 9 9 10 9 9 11
4 3 3 3 3 3 3 4 4 5 6 5 6 9 5 6 8 11 10 9 8 7 7 7 8 8 9 9 10 9 9 7 6 7 8 7 7 9 8 8 8 8 7 8 9 11 10
4 5 4 4 4 3 3 4 4 5 5 6 7 7 4 5 10 10 10 9 8 8 7 7 9 8 7 9 10 9 9 7 7 7 7 8 8 10 9 9 9 9 8 8 8 8 11
5 5 5 4 4 4 4 4 5 5 5 5 6 8 6 6 9 8 9 8 9 7 7 6 7 7 8 9 9 9 8 6 7 6 4 5 7 8 10 9 8 9 9 8 7 9 9
6 5 5 4 4 4 4 4 4 5 5 4 5 7 6 9 7 7 8 8 8 8 7 7 7 8 8 10 9 9 8 7 8 6 5 6 8 8 7 8 9 8 8 9 8 7 9
6 6 5 5 5 4 4 5 5 5 5 4 6 7 5 7 6 8 9 9 9 7 8 7 7 6 7 8 8 8 8 7 7 7 7 8 8 8 8 8 9 9 8 8 8 8 7
7 6 6 6 5 5 5 5 4 4 5 6 5 3 5 8 8 9 9 9 9 7 6 6 7 7 7 6 5 6 6 6 7 7 8 8 9 9 10 9 9 10 9 8 7 7 6
7 6 6 6 5 5 4 4 4 4 5 5 4 4 7 9 8 8 8 8 8 8 8 6 6 7 5 4 4 5 6 7 8 7 7 9 8 8 9 9 12 8 7 6 7 6 6
7 6 6 6 5 5 5 5 4 4 4 4 4 5 6 9 7 8 7 8 7 6 7 6 6 4 3 5 7 8 8 7 7 7 7 8 9 10 10 10 9 8 7 7 7 7 5
7 6 6 6 5 5 5 4 4 3 3 3 4 2 5 8 8 6 8 7 9 9 8 7 4 4 5 6 8 11 11 9 9 8 9 9 8 8 10 10 11 7 6 5 5 8 5
7 6 6 6 5 5 4 4 3 2 2 2 4 3 4 7 5 5 7 8 6 7 9 7 6 6 6 7 9 10 10 8 11 11 9 9 9 9 9 10 8 6 5 4 9 7 5
7 7 6 6 5 5 4 3 3 2 1 2 4 3 5 6 5 4 4 6 6 6 10 7 7 7 7 9 9 9 10 9 9 9 9 10 10 10 10 10 11 6 6 8 6 5 5
7 7 6 6 5 5 4 3 3 2 1 1 5 3 3 6 6 4 3 2 3 3 6 6 7 7 6 8 8 8 9 8 9 11 7 10 8 9 8 8 7 5 6 4 4 5 5